DW6016 Weather Reports


time (UTC)temp
C
wind
direction
speed
KPH
gust
KPH
rain 1hr
cm
rain 24hr
cm
rain mn
cm
humidity
%
barometer
mb
20260507163949 13 85 1.6 3.2 0.00 0.00 0.00 70 1022.0
20260507163447 13 4 0.0 1.6 0.00 0.00 0.00 72 1022.0
20260507162944 13 323 1.6 1.6 0.00 0.00 0.00 71 1022.0
20260507162439 13 311 3.2 4.8 0.00 0.00 0.00 70 1022.1
20260507161937 13 276 1.6 3.2 0.00 0.00 0.00 71 1022.0
20260507161433 12 250 0.0 1.6 0.00 0.00 0.00 72 1022.0
20260507160930 12 322 1.6 1.6 0.00 0.00 0.00 73 1022.1
20260507160426 12 11 1.6 3.2 0.00 0.00 0.00 73 1022.0
20260507155921 12 178 4.8 4.8 0.00 0.00 0.00 73 1022.0
20260507155418 12 302 1.6 1.6 0.00 0.00 0.00 74 1022.1
20260507154915 12 354 4.8 4.8 0.00 0.00 0.00 72 1022.0
20260507154412 12 301 1.6 1.6 0.00 0.00 0.00 77 1022.2
20260507153909 12 305 0.0 0.0 0.00 0.00 0.00 75 1022.0
20260507153405 11 355 0.0 1.6 0.00 0.00 0.00 76 1022.2
20260507152902 11 330 1.6 1.6 0.00 0.00 0.00 75 1022.1
20260507152358 11 295 0.0 0.0 0.00 0.00 0.00 75 1022.2
20260507151854 11 265 1.6 1.6 0.00 0.00 0.00 75 1022.1
20260507151351 11 283 1.6 1.6 0.00 0.00 0.00 76 1021.9
20260507150848 11 311 0.0 0.0 0.00 0.00 0.00 76 1021.9
20260507150345 11 298 1.6 1.6 0.00 0.00 0.00 76 1022.1
20260507145840 11 126 1.6 3.2 0.00 0.00 0.00 76 1021.9
20260507145338 11 309 3.2 3.2 0.00 0.00 0.00 76 1022.0
20260507144834 11 136 3.2 3.2 0.00 0.00 0.00 76 1021.9
20260507144331 11 296 0.0 0.0 0.00 0.00 0.00 77 1022.0
20260507143828 11 279 1.6 3.2 0.00 0.00 0.00 77 1022.2
20260507143325 11 300 0.0 0.0 0.00 0.00 0.00 77 1022.1
20260507142821 11 316 0.0 1.6 0.00 0.00 0.00 78 1021.9
20260507142318 11 319 0.0 1.6 0.00 0.00 0.00 77 1021.8
20260507141814 11 315 0.0 0.0 0.00 0.00 0.00 78 1022.0
20260507141311 11 314 0.0 0.0 0.00 0.00 0.00 79 1021.6
20260507140808 11 310 0.0 0.0 0.00 0.00 0.00 78 1021.9
20260507140305 11 311 0.0 0.0 0.00 0.00 0.00 79 1021.8
20260507135802 11 325 1.6 3.2 0.00 0.00 0.00 78 1021.8
20260507135259 11 185 1.6 3.2 0.00 0.00 0.00 79 1021.9
20260507134755 11 290 0.0 1.6 0.00 0.00 0.00 79 1021.4
20260507134252 11 300 1.6 1.6 0.00 0.00 0.00 78 1021.8
20260507133748 11 315 1.6 1.6 0.00 0.00 0.00 78 1021.5
20260507133244 11 323 1.6 1.6 0.00 0.00 0.00 79 1021.6
20260507132743 11 299 0.0 0.0 0.00 0.00 0.00 79 1021.6
20260507132239 11 314 0.0 0.0 0.00 0.00 0.00 79 1021.8
20260507131736 11 329 0.0 0.0 0.00 0.00 0.00 79 1021.6
20260507131233 11 316 0.0 0.0 0.00 0.00 0.00 79 1021.4
20260507130729 11 316 0.0 0.0 0.00 0.00 0.00 79 1021.4
20260507130227 11 199 1.6 3.2 0.00 0.00 0.00 79 1021.6
20260507125726 11 193 3.2 4.8 0.00 0.00 0.00 79 1021.8
20260507125223 11 293 1.6 1.6 0.00 0.00 0.00 79 1021.6
20260507124720 11 308 0.0 1.6 0.00 0.00 0.00 79 1021.8
20260507124217 11 301 0.0 0.0 0.00 0.00 0.00 79 1021.5
20260507123715 11 220 1.6 1.6 0.00 0.00 0.00 79 1021.5
20260507123212 11 288 0.0 1.6 0.00 0.00 0.00 79 1021.5
20260507122707 11 290 0.0 1.6 0.00 0.00 0.00 80 1021.6
20260507122203 11 306 1.6 1.6 0.00 0.00 0.00 80 1021.8
20260507121659 11 302 0.0 0.0 0.00 0.00 0.00 80 1021.6
20260507121155 11 290 0.0 1.6 0.00 0.00 0.00 81 1021.8
20260507120651 11 318 0.0 0.0 0.00 0.00 0.00 80 1021.5
20260507120148 11 312 0.0 0.0 0.00 0.00 0.00 80 1021.9
20260507115645 11 304 0.0 0.0 0.00 0.00 0.00 80 1021.8
20260507115140 11 280 0.0 1.6 0.00 0.00 0.00 81 1022.0
20260507114636 11 238 3.2 3.2 0.00 0.00 0.00 80 1021.9
20260507114134 11 299 0.0 0.0 0.00 0.00 0.00 80 1021.9
20260507113631 11 296 0.0 0.0 0.00 0.00 0.00 80 1022.0
20260507113128 11 321 0.0 0.0 0.00 0.00 0.00 79 1021.9
20260507112626 11 311 0.0 0.0 0.00 0.00 0.00 80 1021.9
20260507112122 11 307 1.6 3.2 0.00 0.00 0.00 80 1022.0
20260507111620 11 294 0.0 0.0 0.00 0.00 0.00 80 1021.9
20260507111116 11 293 0.0 0.0 0.00 0.00 0.00 80 1022.0
20260507110612 11 300 0.0 0.0 0.00 0.00 0.00 80 1022.0
20260507110109 11 297 0.0 1.6 0.00 0.00 0.00 80 1022.1
20260507105606 11 312 0.0 0.0 0.00 0.00 0.00 79 1022.0
20260507105102 11 284 1.6 1.6 0.00 0.00 0.00 80 1022.1
20260507104600 11 303 0.0 0.0 0.00 0.00 0.00 79 1022.0
20260507104056 11 318 0.0 0.0 0.00 0.00 0.00 80 1022.1
20260507103552 11 208 1.6 3.2 0.00 0.00 0.00 81 1021.9
20260507103049 11 297 0.0 0.0 0.00 0.00 0.00 81 1022.1
20260507102545 11 300 0.0 1.6 0.00 0.00 0.00 81 1022.2
20260507102042 12 306 0.0 0.0 0.00 0.00 0.00 80 1022.2
20260507101537 12 296 0.0 0.0 0.00 0.00 0.00 80 1022.3
20260507101033 12 307 0.0 0.0 0.00 0.00 0.00 80 1022.0
20260507100531 12 304 0.0 0.0 0.00 0.00 0.00 79 1022.2
20260507100029 12 307 0.0 0.0 0.00 0.00 0.00 79 1022.4
20260507095527 12 308 0.0 1.6 0.00 0.00 0.00 80 1022.2
20260507095023 12 299 0.0 0.0 0.00 0.00 0.00 80 1022.3
20260507094519 12 338 0.0 1.6 0.00 0.00 0.00 79 1022.3
20260507094016 12 304 0.0 0.0 0.00 0.00 0.00 79 1022.4
20260507093514 12 292 0.0 1.6 0.00 0.00 0.00 79 1022.6
20260507093013 12 301 0.0 1.6 0.00 0.00 0.00 79 1022.5
20260507092509 12 296 0.0 0.0 0.00 0.00 0.00 79 1022.6
20260507092005 12 299 0.0 0.0 0.00 0.00 0.00 79 1022.7
20260507091502 12 298 0.0 0.0 0.00 0.00 0.00 79 1022.6
20260507090958 12 300 1.6 1.6 0.00 0.00 0.00 79 1022.7
20260507090454 12 323 0.0 0.0 0.00 0.00 0.00 79 1022.5
20260507085950 12 302 1.6 1.6 0.00 0.00 0.00 79 1022.7
20260507085448 12 292 0.0 1.6 0.00 0.00 0.00 79 1022.6
20260507084944 12 297 0.0 0.0 0.00 0.00 0.00 79 1022.7
20260507084441 12 298 0.0 0.0 0.00 0.00 0.00 79 1022.5
20260507083938 12 291 0.0 1.6 0.00 0.00 0.00 79 1022.5
20260507083435 12 302 0.0 0.0 0.00 0.00 0.00 80 1022.6
20260507082931 12 302 0.0 0.0 0.00 0.00 0.00 80 1022.6
20260507082427 12 311 1.6 1.6 0.00 0.00 0.00 81 1022.7
20260507081924 12 297 0.0 0.0 0.00 0.00 0.00 81 1022.8
20260507081420 12 297 0.0 0.0 0.00 0.00 0.00 80 1022.7
20260507080917 12 297 0.0 0.0 0.00 0.00 0.00 81 1022.6
20260507080414 12 288 0.0 1.6 0.00 0.00 0.00 80 1022.7
20260507075909 12 298 0.0 0.0 0.00 0.00 0.00 81 1022.7
20260507075405 12 305 0.0 0.0 0.00 0.00 0.00 81 1022.8
20260507074902 12 304 1.6 1.6 0.00 0.00 0.00 82 1022.5
20260507074358 12 312 0.0 0.0 0.00 0.00 0.00 81 1022.7
20260507073856 12 300 0.0 0.0 0.00 0.00 0.00 81 1022.7
20260507073352 12 301 0.0 1.6 0.00 0.00 0.00 81 1022.8
20260507072849 12 305 0.0 0.0 0.00 0.00 0.00 81 1022.8
20260507072347 12 315 0.0 0.0 0.00 0.00 0.00 81 1022.5
20260507071844 12 306 0.0 0.0 0.00 0.00 0.00 81 1022.7
20260507071342 12 298 0.0 0.0 0.00 0.00 0.00 80 1022.5
20260507070837 12 23 1.6 1.6 0.00 0.00 0.00 80 1022.6
20260507070335 12 253 1.6 3.2 0.00 0.00 0.00 80 1022.5
20260507065832 12 303 0.0 0.0 0.00 0.00 0.00 80 1022.6
20260507065329 12 1 1.6 1.6 0.00 0.00 0.00 80 1022.3
20260507064826 12 308 0.0 1.6 0.00 0.00 0.00 81 1022.4
20260507064324 12 307 0.0 0.0 0.00 0.00 0.00 81 1022.6
20260507063822 12 306 0.0 0.0 0.00 0.00 0.00 80 1022.4
20260507063318 12 303 0.0 0.0 0.00 0.00 0.00 81 1022.5
20260507062815 12 289 0.0 1.6 0.00 0.00 0.00 81 1022.3
20260507062312 12 286 1.6 1.6 0.00 0.00 0.00 81 1022.6
20260507061810 12 266 1.6 1.6 0.00 0.00 0.00 81 1022.6
20260507061308 12 284 0.0 1.6 0.00 0.00 0.00 82 1022.5
20260507060806 12 305 0.0 0.0 0.00 0.00 0.00 82 1022.6
20260507060302 12 290 3.2 3.2 0.00 0.00 0.00 82 1022.6
20260507055759 12 290 1.6 3.2 0.00 0.00 0.00 82 1022.6
20260507055254 12 319 1.6 1.6 0.00 0.00 0.00 82 1022.6
20260507054750 12 287 1.6 1.6 0.00 0.00 0.00 82 1022.4
20260507054247 12 303 0.0 1.6 0.00 0.00 0.00 82 1022.6
20260507053744 13 320 1.6 1.6 0.00 0.00 0.00 82 1022.5
20260507053242 13 345 0.0 1.6 0.00 0.00 0.00 82 1022.5
20260507052741 13 325 1.6 1.6 0.00 0.00 0.00 81 1022.6
20260507052237 13 10 1.6 1.6 0.00 0.00 0.00 81 1022.3
20260507051735 13 275 1.6 3.2 0.00 0.00 0.00 81 1022.4
20260507051231 13 317 3.2 3.2 0.00 0.00 0.00 81 1022.6
20260507050728 13 292 0.0 1.6 0.00 0.00 0.00 81 1022.3
20260507050226 13 109 1.6 1.6 0.00 0.00 0.00 80 1022.5
20260507045722 13 206 1.6 3.2 0.00 0.00 0.00 80 1022.4
20260507045218 13 310 1.6 1.6 0.00 0.00 0.00 80 1022.6
20260507044716 13 294 1.6 3.2 0.00 0.00 0.00 80 1022.6
20260507044212 13 1 0.0 1.6 0.00 0.00 0.00 80 1022.4
20260507043708 13 282 1.6 3.2 0.00 0.00 0.00 80 1022.6
20260507043205 13 325 3.2 4.8 0.00 0.00 0.00 80 1022.3
20260507042702 13 305 3.2 4.8 0.00 0.00 0.00 79 1022.2
20260507042156 13 328 0.0 1.6 0.00 0.00 0.00 79 1022.2
20260507041654 14 310 1.6 3.2 0.00 0.00 0.00 79 1022.2
20260507041150 14 308 1.6 1.6 0.00 0.00 0.00 79 1022.2
20260507040648 14 290 0.0 0.0 0.00 0.00 0.00 79 1022.3
20260507040144 14 267 3.2 3.2 0.00 0.00 0.00 79 1022.3
20260507035639 14 268 1.6 3.2 0.00 0.00 0.00 79 1021.9
20260507035136 14 300 1.6 3.2 0.00 0.00 0.00 78 1021.9
20260507034633 15 308 3.2 3.2 0.00 0.00 0.00 78 1021.8
20260507034131 15 296 0.0 0.0 0.00 0.00 0.00 78 1021.9
20260507033629 15 151 3.2 3.2 0.00 0.00 0.00 78 1021.8
20260507033126 15 296 1.6 3.2 0.00 0.00 0.00 78 1021.8
20260507032623 15 332 0.0 0.0 0.00 0.00 0.00 79 1021.6
20260507032119 15 40 0.0 1.6 0.00 0.00 0.00 79 1021.3
20260507031616 15 297 0.0 0.0 0.00 0.00 0.00 79 1021.3
20260507031112 15 325 1.6 1.6 0.00 0.00 0.00 78 1021.4
20260507030609 15 299 0.0 1.6 0.00 0.00 0.00 78 1021.3
20260507030107 15 298 1.6 1.6 0.00 0.00 0.00 79 1021.2
20260507025604 15 301 0.0 0.0 0.00 0.00 0.00 79 1021.1
20260507025101 15 290 0.0 0.0 0.00 0.00 0.00 80 1021.1
20260507024559 15 296 0.0 0.0 0.00 0.00 0.00 79 1020.9
20260507024056 15 310 0.0 0.0 0.00 0.00 0.00 78 1021.0
20260507023551 16 286 0.0 1.6 0.00 0.00 0.00 77 1021.0
20260507023049 16 299 0.0 0.0 0.00 0.00 0.00 77 1021.1
20260507022546 16 324 1.6 1.6 0.00 0.00 0.00 77 1021.1
20260507022041 16 298 0.0 0.0 0.00 0.00 0.00 76 1021.1
20260507021537 16 293 0.0 0.0 0.00 0.00 0.00 75 1021.0
20260507021034 17 290 1.6 1.6 0.00 0.00 0.00 74 1021.2
20260507020531 17 257 0.0 0.0 0.00 0.00 0.00 74 1021.4
20260507020028 17 323 0.0 1.6 0.00 0.00 0.00 74 1021.1
20260507015526 17 300 1.6 3.2 0.00 0.00 0.00 75 1020.8
20260507015023 17 290 0.0 0.0 0.00 0.00 0.00 74 1021.1
20260507014520 17 302 0.0 1.6 0.00 0.00 0.00 75 1021.0
20260507014015 17 297 3.2 4.8 0.00 0.00 0.00 74 1021.2
20260507013512 17 346 1.6 1.6 0.00 0.00 0.00 74 1020.9
20260507013010 17 292 1.6 1.6 0.00 0.00 0.00 73 1021.2
20260507012507 17 293 4.8 8.0 0.00 0.00 0.00 73 1020.9
20260507012003 17 294 1.6 3.2 0.00 0.00 0.00 72 1021.1
20260507011500 17 322 1.6 1.6 0.00 0.00 0.00 73 1021.0
20260507010956 18 302 1.6 1.6 0.00 0.00 0.00 72 1021.0
20260507010450 18 309 1.6 1.6 0.00 0.00 0.00 72 1020.9
20260507005948 18 264 3.2 4.8 0.00 0.00 0.00 72 1020.9
20260507005445 18 241 3.2 4.8 0.00 0.00 0.00 72 1020.9
20260507004941 18 280 1.6 1.6 0.00 0.00 0.00 71 1020.9
20260507004438 19 297 1.6 3.2 0.00 0.00 0.00 72 1020.8
20260507003936 19 301 1.6 1.6 0.00 0.00 0.00 72 1020.6
20260507003431 19 282 1.6 3.2 0.00 0.00 0.00 71 1020.6
20260507002926 20 293 1.6 1.6 0.00 0.00 0.00 71 1020.7
20260507002422 20 127 3.2 8.0 0.00 0.00 0.00 71 1020.6
20260507001920 20 299 1.6 3.2 0.00 0.00 0.00 70 1020.8
20260507001416 20 304 1.6 1.6 0.00 0.00 0.00 70 1020.6
20260507000914 20 289 0.0 1.6 0.00 0.00 0.00 71 1020.6
20260507000409 20 301 1.6 3.2 0.00 0.00 0.00 69 1020.5
20260506235905 20 312 3.2 3.2 0.00 0.00 0.00 68 1020.8
20260506235403 20 306 0.0 0.0 0.00 0.00 0.00 69 1020.6
20260506234858 20 298 0.0 1.6 0.00 0.00 0.00 67 1020.5
20260506234356 20 302 3.2 3.2 0.00 0.00 0.00 67 1020.5
20260506233853 20 100 1.6 3.2 0.00 0.00 0.00 66 1020.7
20260506233349 20 21 1.6 3.2 0.00 0.00 0.00 67 1020.8
20260506232846 20 304 0.0 1.6 0.00 0.00 0.00 67 1020.7
20260506232342 20 315 0.0 1.6 0.00 0.00 0.00 67 1020.5
20260506231838 20 313 0.0 0.0 0.00 0.00 0.00 69 1020.5
20260506231336 20 295 1.6 1.6 0.00 0.00 0.00 69 1020.5
20260506230833 20 307 3.2 3.2 0.00 0.00 0.00 67 1021.0
20260506230330 20 309 0.0 0.0 0.00 0.00 0.00 71 1021.0
20260506225826 19 1 1.6 1.6 0.00 0.00 0.00 68 1021.0
20260506225324 20 255 1.6 1.6 0.00 0.00 0.00 68 1021.0
20260506224821 20 302 1.6 1.6 0.00 0.00 0.00 71 1021.0
20260506224318 20 188 0.0 1.6 0.00 0.00 0.00 68 1021.0
20260506223814 20 307 1.6 3.2 0.00 0.00 0.00 68 1021.1
20260506223309 19 312 0.0 1.6 0.00 0.00 0.00 68 1021.2
20260506222807 19 321 0.0 0.0 0.00 0.00 0.00 69 1021.2
20260506222305 19 150 3.2 4.8 0.00 0.00 0.00 69 1021.2
20260506221800 19 336 1.6 1.6 0.00 0.00 0.00 70 1021.1
20260506221258 18 305 0.0 1.6 0.00 0.00 0.00 72 1021.2
20260506220755 19 301 3.2 3.2 0.00 0.00 0.00 71 1021.3
20260506220249 19 310 0.0 1.6 0.00 0.00 0.00 73 1021.5
20260506215747 19 304 1.6 1.6 0.00 0.00 0.00 72 1021.3
20260506215243 20 308 0.0 0.0 0.00 0.00 0.00 71 1021.2
20260506214739 20 309 0.0 1.6 0.00 0.00 0.00 73 1021.2
20260506214236 19 306 1.6 1.6 0.00 0.00 0.00 71 1021.0
20260506213735 18 351 1.6 1.6 0.00 0.00 0.00 72 1021.2
20260506213231 18 344 0.0 1.6 0.00 0.00 0.00 73 1021.4
20260506212729 18 302 1.6 1.6 0.00 0.00 0.00 73 1021.5
20260506212224 18 337 1.6 1.6 0.00 0.00 0.00 73 1021.5
20260506211719 18 358 0.0 0.0 0.00 0.00 0.00 76 1021.6
20260506211216 18 24 0.0 1.6 0.00 0.00 0.00 75 1021.9
20260506210713 18 217 1.6 3.2 0.00 0.00 0.00 75 1021.6
20260506210210 17 299 0.0 1.6 0.00 0.00 0.00 75 1021.6
20260506205707 18 306 0.0 0.0 0.00 0.00 0.00 77 1022.0
20260506205202 18 232 1.6 3.2 0.00 0.00 0.00 73 1021.9
20260506204659 18 340 0.0 1.6 0.00 0.00 0.00 74 1021.8
20260506204156 18 299 0.0 0.0 0.00 0.00 0.00 72 1021.8
20260506203655 18 334 1.6 1.6 0.00 0.00 0.00 74 1021.8
20260506203151 18 330 0.0 1.6 0.00 0.00 0.00 77 1021.8
20260506202649 18 92 3.2 3.2 0.00 0.00 0.00 75 1021.8
20260506202145 18 313 0.0 1.6 0.00 0.00 0.00 76 1021.8
20260506201642 18 313 4.8 4.8 0.00 0.00 0.00 73 1021.8
20260506201138 19 310 0.0 0.0 0.00 0.00 0.00 73 1021.9
20260506200635 18 310 0.0 0.0 0.00 0.00 0.00 74 1021.8
20260506200132 18 305 0.0 0.0 0.00 0.00 0.00 75 1021.9
20260506195629 17 300 0.0 0.0 0.00 0.00 0.00 77 1021.9
20260506195125 18 307 1.6 1.6 0.00 0.00 0.00 76 1022.1
20260506194623 17 302 0.0 1.6 0.00 0.00 0.00 76 1022.1
20260506194119 17 316 0.0 0.0 0.00 0.00 0.00 77 1022.2
20260506193617 17 300 1.6 3.2 0.00 0.00 0.00 78 1022.2
20260506193114 17 302 0.0 0.0 0.00 0.00 0.00 79 1022.3
20260506192611 17 310 1.6 3.2 0.00 0.00 0.00 78 1022.1
20260506192106 17 304 0.0 0.0 0.00 0.00 0.00 78 1022.2
20260506191603 16 310 1.6 1.6 0.00 0.00 0.00 79 1022.0
20260506191059 16 326 0.0 0.0 0.00 0.00 0.00 81 1022.0
20260506190557 16 324 0.0 0.0 0.00 0.00 0.00 79 1022.1
20260506190053 16 316 1.6 3.2 0.00 0.00 0.00 82 1022.2
20260506185551 16 344 1.6 1.6 0.00 0.00 0.00 81 1022.1
20260506185047 16 0 0.0 0.0 0.00 0.00 0.00 81 1022.0
20260506184545 16 297 0.0 1.6 0.00 0.00 0.00 82 1022.1
20260506184042 16 349 1.6 1.6 0.00 0.00 0.00 81 1022.1
20260506183537 16 300 0.0 0.0 0.00 0.00 0.00 81 1022.0
20260506183034 16 309 1.6 1.6 0.00 0.00 0.00 83 1022.0
20260506182532 16 318 4.8 4.8 0.00 0.00 0.00 82 1022.0
20260506182029 16 302 0.0 0.0 0.00 0.00 0.00 83 1022.1
20260506181527 16 290 0.0 1.6 0.00 0.00 0.00 83 1022.0
20260506181023 16 310 0.0 0.0 0.00 0.00 0.00 83 1022.0
20260506180520 15 306 0.0 0.0 0.00 0.00 0.00 84 1022.2
20260506180016 15 325 1.6 1.6 0.00 0.00 0.00 85 1022.0
20260506175513 15 331 4.8 4.8 0.00 0.00 0.00 85 1022.2
20260506175009 15 314 0.0 1.6 0.00 0.00 0.00 85 1021.8
20260506174508 15 307 1.6 3.2 0.00 0.00 0.00 85 1022.0
20260506174004 15 303 1.6 3.2 0.00 0.00 0.00 84 1021.9
20260506173502 15 312 1.6 1.6 0.00 0.00 0.00 85 1021.9
20260506172958 15 318 0.0 0.0 0.00 0.00 0.00 86 1021.8
20260506172456 15 317 0.0 0.0 0.00 0.00 0.00 85 1021.9
20260506171952 15 314 0.0 0.0 0.00 0.00 0.00 84 1021.9
20260506171449 15 309 1.6 1.6 0.00 0.00 0.00 85 1022.0
20260506170947 15 307 0.0 0.0 0.00 0.00 0.00 85 1021.8
20260506170443 14 300 0.0 0.0 0.00 0.00 0.00 86 1021.9
20260506165936 14 305 0.0 1.6 0.00 0.00 0.00 86 1022.0
20260506165435 15 309 1.6 1.6 0.00 0.00 0.00 85 1022.0
20260506164930 15 303 0.0 0.0 0.00 0.00 0.00 85 1021.8
20260506164427 15 301 0.0 0.0 0.00 0.00 0.00 85 1021.9